[[{"header":{"parameterUnit":"m.s-1","parameterCategory":1,"la1":30.2991,"la2":30.254,"lo1":-89.0895,"lo2":-89.0444,"dy":0.0017,"dx":0.0017,"nx":28,"ny":28,"refTime":"2023-07-22T09:00:00:Z","depth":0,"parameterNumber":2,"parameterNumberName":"U-component_of_WINDS"},"data":[0,0,0,0,0,0,0,0,0,0,0,0,0,0,0,0,0,0,0,0,0,0,0,0,0,0,0,0,0,0,0,0,0,0,0,0,0,0,0,0,0,0,0,0,0,0,0,0,0,0,0,0,0,0,0,0,0,0,3.1512,3.1513,0,3.1624,3.1626,3.1627,3.1541,3.1537,3.1533,3.153,3.1655,3.1661,3.1668,0,0,0,0,0,0,0,0,0,0,0,0,0,3.1231,3.1236,3.1512,3.1513,3.1515,3.1624,3.1626,3.1627,3.1541,3.1537,3.1532,3.1528,3.1652,3.166,3.1669,0,0,0,0,0,0,0,0,0,0,0,0,0,3.1349,3.1238,3.1512,3.1485,3.1484,3.1624,3.1626,3.1628,3.1542,3.1537,3.1531,3.1526,3.165,3.166,3.167,3.1846,0,0,3.1701,3.1705,0,0,0,0,0,0,0,0,3.1343,3.136,3.1487,3.1487,3.1486,3.1562,3.1572,3.1701,3.1544,3.152,3.153,3.1523,3.1629,3.1641,3.1674,3.1851,3.1857,3.1702,3.1708,3.1712,3.1715,0,0,0,0,0,0,0,3.1335,3.1354,3.1557,3.1489,3.1488,3.147,3.148,3.1596,3.1605,3.1522,3.1516,3.153,3.1628,3.1665,3.1677,3.1859,3.1702,3.1711,3.1717,3.1721,3.2183,3.2188,0,0,0,0,0,0,3.1328,3.1348,3.1553,3.156,3.1398,3.1479,3.1491,3.1544,3.1604,3.1607,3.1535,3.1525,3.165,3.1665,3.1681,3.1888,3.1712,3.1722,3.1728,3.2176,3.2184,3.219,0,0,0,0,0,0,3.1322,3.1347,3.1549,3.1452,3.1477,3.149,3.155,3.1549,3.1586,3.1613,3.1615,3.157,3.1646,3.1666,3.1804,3.1891,3.1727,3.1736,3.2169,3.2179,3.2187,3.2305,0,0,0,0,0,0,3.1314,3.1345,3.1411,3.1454,3.1482,3.1668,3.1555,3.1555,3.1602,3.1592,3.1647,3.1651,3.1643,3.1789,3.1814,3.1902,3.1744,3.2161,3.2173,3.2184,3.2294,3.2317,3.2338,0,0,0,0,0,3.1305,3.1442,3.1414,3.144,3.1563,3.1673,3.1689,3.1675,3.161,3.1676,3.1694,3.1649,3.1878,3.1804,3.1831,3.1924,3.2156,3.217,3.2183,3.2284,3.2313,3.2337,0,0,0,0,0,0,3.1412,3.1447,3.1417,3.1572,3.162,3.1658,3.1742,3.1706,3.1776,3.1763,3.1745,3.1759,3.1902,3.1927,3.1844,3.2096,3.2007,3.2027,3.2074,3.2101,3.2123,3.2113,3.1752,0,0,0,0,0,3.1453,3.1536,3.1564,3.1699,3.1724,3.1729,3.1776,3.176,3.181,3.1831,3.1858,3.1911,3.1994,3.2049,3.2128,3.2297,3.2307,3.2375,3.2396,3.2414,3.2432,3.252,3.255,3.2236,3.2236,3.2235,0,0,3.1541,3.157,3.1625,3.1721,3.1756,3.1844,3.1747,3.1845,3.191,3.1847,3.1976,3.1999,3.2056,3.2209,3.2278,3.2235,3.252,3.2432,3.2446,3.2453,3.2538,3.2567,3.2594,3.2245,3.2243,3.2242,0,0,3.1743,3.1775,3.1888,3.1924,3.1977,3.1979,3.2007,3.205,3.2061,3.219,3.2143,3.2223,3.2367,3.2408,3.2449,3.2665,3.2627,3.2692,3.2807,3.2893,3.2918,3.294,3.3015,3.3042,3.2709,3.271,3.271,0,3.1846,3.1974,3.1953,3.2053,3.2096,3.2039,3.2155,3.2192,3.2269,3.2302,3.2251,3.2428,3.2464,3.2624,3.2676,3.2712,3.2743,3.2685,3.2916,3.2937,3.2958,3.3029,3.3057,3.2717,3.2716,3.2715,3.2715,0,3.2096,3.2186,3.2272,3.2343,3.2397,3.2505,3.2501,3.2559,3.2538,3.2546,3.2678,3.2717,3.2801,3.2839,3.2822,3.2997,3.2968,3.2917,3.2827,3.2995,3.3062,3.3089,3.2727,3.2725,3.2723,3.2721,0,0,3.237,3.2425,3.2457,3.2487,3.254,3.2611,3.2717,3.2794,3.2843,3.2899,3.2987,3.3109,3.3061,3.3107,3.3094,3.3171,3.3336,3.311,3.3111,3.3149,3.3529,3.3565,3.3597,3.3311,3.3316,3.3321,3.3523,0,3.2573,3.2752,3.2735,3.2907,3.2989,3.2935,3.3027,3.307,3.3081,3.3154,3.3166,3.3252,3.3183,3.321,3.3283,3.33,3.3412,3.3286,3.3393,3.3397,3.3378,3.3632,3.3672,3.3861,3.355,3.3554,3.3557,0,3.2834,3.2893,3.3072,3.3109,3.3143,3.3225,3.3294,3.3365,3.3413,3.3415,3.3465,3.3438,3.3546,3.3454,3.3602,3.3516,3.3559,3.3574,3.3581,3.359,3.3486,3.3646,3.3921,3.3949,3.3599,3.3595,3.3592,0,3.3013,3.3138,3.326,3.3288,3.3336,3.3395,3.3418,3.346,3.3508,3.357,3.36,3.3675,3.3716,3.3775,3.377,3.3704,3.392,3.3828,3.3925,3.3925,3.3972,3.3968,3.4256,3.4003,3.4003,3.4002,3.4002,0,3.324,3.3351,3.334,3.3415,3.3537,3.3518,3.364,3.3657,3.3695,3.3773,3.3734,3.3809,3.3798,3.3874,3.3871,3.3992,3.4012,3.4017,3.4015,3.402,3.4019,3.4047,3.4033,3.401,3.4008,3.4007,3.4005,0,3.346,3.3457,3.3586,3.3619,3.363,3.3719,3.3748,3.382,3.3826,3.3925,3.3948,3.3959,3.4045,3.4046,3.4147,3.4145,3.4292,3.4276,3.4275,3.4271,3.4366,3.4356,3.4681,3.4721,3.4444,3.4446,3.4449,0,3.3604,3.3687,3.3728,3.3775,3.3801,3.388,3.3926,3.3911,3.3962,3.4021,3.4086,3.4168,3.4232,3.4374,3.4392,3.4468,3.4453,3.4561,3.4464,3.4465,3.4451,3.4446,3.4453,3.4579,3.4583,3.4585,3.4587,0,3.3859,3.3853,3.392,3.3987,3.4043,3.4096,3.4144,3.4187,3.4177,3.4236,3.4322,3.4372,3.4472,3.4554,3.4627,3.4653,3.4619,3.4617,3.4643,3.4648,3.4643,3.4644,3.4324,3.461,3.4608,3.4606,3.4605,3.4604,3.4044,3.4114,3.4153,3.4229,3.4263,3.4308,3.4376,3.4389,3.4459,3.4537,3.4524,3.462,3.4665,3.4759,3.4791,3.4867,3.483,3.4868,3.4877,3.4887,3.4896,3.4632,3.4881,3.488,3.488,3.4879,3.4879,0,3.4295,3.4316,3.4386,3.4453,3.4513,3.4472,3.4524,3.4577,3.466,3.4704,3.4767,3.4865,3.4944,3.4967,3.5043,3.51,3.5086,3.512,3.5115,3.5121,3.4926,3.4895,3.513,3.513,3.5129,3.5129,3.5129,3.5129,3.4432,3.4548,3.4546,3.4678,3.47,3.479,3.4823,3.4865,3.4899,3.5009,3.5073,3.5086,3.5122,3.52,3.527,3.5275,3.5304,3.5345,3.5343,3.516,3.5135,3.5111,3.5081,3.5352,3.5352,3.5531,3.5533,3.5534]},{"header":{"parameterUnit":"m.s-1","parameterCategory":1,"la1":30.2991,"la2":30.254,"lo1":-89.0895,"lo2":-89.0444,"dy":0.0017,"dx":0.0017,"nx":28,"ny":28,"refTime":"2023-07-22T09:00:00:Z","depth":0,"parameterNumber":3,"parameterNumberName":"V-component_of_WINDS"},"data":[0,0,0,0,0,0,0,0,0,0,0,0,0,0,0,0,0,0,0,0,0,0,0,0,0,0,0,0,0,0,0,0,0,0,0,0,0,0,0,0,0,0,0,0,0,0,0,0,0,0,0,0,0,0,0,0,0,0,6.7886,6.7886,0,6.7827,6.7826,6.7825,6.7669,6.7665,6.7662,6.7659,6.76,6.7602,6.7603,0,0,0,0,0,0,0,0,0,0,0,0,0,6.787,6.7871,6.7887,6.7886,6.7885,6.7827,6.7826,6.7825,6.7669,6.7665,6.7661,6.7657,6.76,6.7601,6.7603,0,0,0,0,0,0,0,0,0,0,0,0,0,6.7851,6.7872,6.7887,6.78,6.7792,6.7827,6.7826,6.7825,6.767,6.7665,6.766,6.7656,6.7599,6.7601,6.7603,6.7718,0,0,6.7611,6.7612,0,0,0,0,0,0,0,0,6.7852,6.7852,6.7814,6.7806,6.7797,6.775,6.7798,6.7789,6.7671,6.7717,6.7659,6.7653,6.7654,6.7652,6.7651,6.7715,6.7713,6.7611,6.7612,6.7613,6.7614,0,0,0,0,0,0,0,6.7854,6.7853,6.7863,6.7813,6.7803,6.7766,6.7758,6.7796,6.7714,6.7712,6.7701,6.7696,6.7649,6.765,6.7649,6.7712,6.7611,6.7613,6.7614,6.7615,6.7868,6.7873,0,0,0,0,0,0,6.7867,6.7855,6.7865,6.7861,6.7813,6.777,6.7761,6.777,6.7713,6.77,6.77,6.7689,6.7648,6.7646,6.7646,6.7776,6.7613,6.7615,6.7617,6.7863,6.7869,6.7875,0,0,0,0,0,0,6.7867,6.7869,6.7867,6.7855,6.7852,6.7776,6.7788,6.7772,6.7772,6.7704,6.7689,6.7716,6.7644,6.7643,6.7701,6.7772,6.7616,6.7618,6.7857,6.7865,6.7872,6.8038,0,0,0,0,0,0,6.7867,6.787,6.7912,6.7857,6.7853,6.7922,6.7792,6.7774,6.7776,6.7761,6.7715,6.7702,6.764,6.7699,6.7704,6.7772,6.762,6.785,6.786,6.787,6.8025,6.805,6.8072,0,0,0,0,0,6.7867,6.7961,6.7914,6.7916,6.7903,6.7927,6.7924,6.785,6.7783,6.7824,6.7781,6.7704,6.7765,6.7706,6.771,6.7781,6.7845,6.7857,6.7869,6.8015,6.8045,6.8071,0,0,0,0,0,0,6.8025,6.7952,6.79,6.7978,6.796,6.79,6.795,6.7884,6.7885,6.7871,6.778,6.7771,6.7842,6.7818,6.7754,6.789,6.7792,6.7806,6.7902,6.793,6.7953,6.7956,6.7622,0,0,0,0,0,6.8069,6.8093,6.8029,6.8104,6.8098,6.8027,6.8034,6.7979,6.7956,6.7948,6.7908,6.7891,6.7905,6.7917,6.7927,6.8023,6.8011,6.8074,6.8097,6.8116,6.8128,6.8177,6.8204,6.7915,6.7914,6.7914,0,0,6.816,6.8123,6.8144,6.8135,6.8114,6.8142,6.802,6.8055,6.8075,6.7953,6.8005,6.7977,6.7951,6.8029,6.8061,6.8011,6.8206,6.8131,6.8147,6.8148,6.8192,6.822,6.8244,6.7923,6.7921,6.792,0,0,6.8339,6.8314,6.8374,6.8356,6.8327,6.8279,6.8295,6.8246,6.8222,6.8273,6.8182,6.8207,6.8234,6.822,6.8216,6.8395,6.8324,6.8401,6.852,6.857,6.8592,6.8612,6.8675,6.8699,6.8414,6.8415,6.8415,0,6.8455,6.8492,6.8413,6.8454,6.8453,6.8345,6.8406,6.8394,6.837,6.8372,6.8317,6.835,6.8325,6.8398,6.8442,6.8444,6.8458,6.8404,6.8596,6.8615,6.8632,6.8691,6.8715,6.8424,6.8423,6.8422,6.8421,0,6.8636,6.8665,6.8717,6.8696,6.8702,6.8753,6.8683,6.87,6.8646,6.8605,6.866,6.8627,6.8629,6.8643,6.8591,6.871,6.8679,6.8612,6.8511,6.867,6.8724,6.8746,6.8437,6.8434,6.8431,6.8429,0,0,6.8907,6.8846,6.8866,6.8856,6.8818,6.8839,6.8887,6.8888,6.8904,6.8893,6.893,6.8959,6.8896,6.8892,6.8838,6.8882,6.9026,6.8808,6.8806,6.8848,6.9155,6.9204,6.9232,6.898,6.8984,6.8987,6.9156,0,6.9074,6.915,6.9082,6.9172,6.9197,6.9098,6.914,6.9122,6.9087,6.9105,6.9066,6.9087,6.9003,6.9,6.904,6.9,6.9085,6.8987,6.9014,6.9016,6.902,6.926,6.9311,6.9472,6.9177,6.9181,6.9183,0,6.9277,6.9275,6.9368,6.9326,6.9334,6.9373,6.937,6.9389,6.9368,6.9339,6.9338,6.9272,6.9318,6.9224,6.9285,6.922,6.9228,6.9211,6.9215,6.9212,6.9107,6.9261,6.9522,6.9545,6.9216,6.9213,6.9211,0,6.9463,6.9485,6.9543,6.9538,6.9491,6.9521,6.9503,6.9478,6.9484,6.9483,6.9486,6.9492,6.9494,6.95,6.9439,6.9375,6.9509,6.9409,6.9486,6.9488,6.9515,6.9513,6.9778,6.9526,6.9525,6.9525,6.9524,0,6.9654,6.9714,6.9626,6.9661,6.9726,6.9651,6.9718,6.969,6.9669,6.9698,6.9615,6.9644,6.9562,6.9584,6.9537,6.9596,6.9598,6.9576,6.9562,6.9582,6.9585,6.9583,6.957,6.9531,6.953,6.9528,6.9527,0,6.9871,6.9814,6.9871,6.9824,6.9814,6.9864,6.9823,6.9855,6.9817,6.9855,6.986,6.9799,6.9821,6.9761,6.9774,6.9742,6.9827,6.9796,6.9833,6.9823,6.9903,6.9896,7.0174,7.0206,6.9936,6.9938,6.9941,0,6.9994,7.0038,6.9997,7.0011,6.9997,7.0021,7.0027,6.9957,6.9967,6.9949,6.9984,6.9999,7.0006,7.0046,7.0003,7.0013,6.9981,7.0078,6.9981,7.0,6.998,6.9977,6.9981,7.0097,7.01,7.0103,7.0105,0,7.0219,7.019,7.0203,7.0207,7.0218,7.0218,7.0212,7.0228,7.0153,7.017,7.0191,7.0197,7.0211,7.0227,7.0229,7.0211,7.0146,7.0137,7.0155,7.0173,7.0192,7.0182,6.9885,7.0129,7.0127,7.0125,7.0124,7.0123,7.0391,7.0426,7.0403,7.0421,7.041,7.0408,7.0435,7.0402,7.0418,7.0423,7.0382,7.0412,7.0394,7.0389,7.0379,7.0403,7.0358,7.0385,7.0391,7.0398,7.0411,7.0192,7.0403,7.0402,7.0402,7.0401,7.0401,0,7.061,7.0592,7.0609,7.0604,7.0619,7.0559,7.0551,7.0567,7.0595,7.0584,7.0594,7.062,7.0636,7.0597,7.0608,7.0635,7.0605,7.064,7.0635,7.0633,7.045,7.0433,7.0663,7.0663,7.0663,7.0663,7.0663,7.0663,7.0725,7.0781,7.0751,7.0802,7.0783,7.0813,7.0813,7.0811,7.0802,7.0835,7.0848,7.0823,7.0801,7.081,7.0823,7.0812,7.0819,7.0863,7.0841,7.0671,7.0645,7.0621,7.0603,7.0866,7.0866,7.1021,7.1022,7.1023]}]]